Grant County, OR

4:27 PM PDT on May 21, 2018 (GMT -0700)
Grant County Regional

Weather History for KGCD - March, 2014

Change the Weather History Date:

Saturday, March 8, 2014

  Actual Average (KBNO) Record (KBNO)
Temperature  
Mean Temperature 45 °F -  
Max Temperature 57 °F 43 °F 68 °F (2005)
Min Temperature 33 °F 21 °F 7 °F (1985)
Degree Days  
Heating Degree Days 20    
Moisture  
Dew Point 29 °F    
Average Humidity 51    
Maximum Humidity 81    
Minimum Humidity 27    
Precipitation  
Precipitation 0.00 in - - ()
Sea Level Pressure  
Sea Level Pressure 30.14 in    
Wind  
Wind Speed 9 mph (SE)    
Max Wind Speed 30 mph    
Max Gust Speed 39 mph    
Visibility 10 miles    
Events      
Averages and records for this station are not official NWS values.
T = Trace of Precipitation, MM = Missing Value Source: NWS Daily Summary

Daily Weather History Graph

Daily Weather History Graph

Search for Another Location

Airport or City:

Astronomy

Mar. 08, 2014 Rise Set
Actual Time 6:20 AM PST 5:53 PM PST
Civil Twilight 5:51 AM PST 6:22 PM PST
Nautical Twilight 5:18 AM PST 6:55 PM PST
Astronomical Twilight 4:44 AM PST 7:29 PM PST
Moon 10:51 AM PST (3/8) 1:09 AM PST (3/8)
Length of Visible Light 12h 30m
Length of Day
11h 32m
First Quarter, 53% of the Moon is Illuminated
Mar 8
First Quarter
Mar 16
Full
Mar 23
Last Quarter
Mar 30
New
Apr 7
First Quarter

Hourly Weather History & Observations

Time (PST) Temp. Windchill Dew Point Humidity Pressure Visibility Wind Dir Wind Speed Gust Speed Precip Events Conditions
12:18 AM 35.6 °F 30.7 °F 28.4 °F 75% 30.24 in 10.0 mi ESE 5.8 mph - N/A   Clear
12:36 AM 35.6 °F 31.7 °F 28.4 °F 75% 30.23 in 10.0 mi East 4.6 mph - N/A   Clear
12:56 AM 35.6 °F 31.7 °F 28.4 °F 75% 30.23 in 10.0 mi ESE 4.6 mph - N/A   Clear
1:16 AM 37.4 °F 32.1 °F 28.4 °F 70% 30.23 in 10.0 mi SE 6.9 mph - N/A   Clear
1:56 AM 35.6 °F 31.7 °F 28.4 °F 75% 30.21 in 10.0 mi East 4.6 mph - N/A   Clear
2:18 AM 35.6 °F 29.2 °F 28.4 °F 75% 30.20 in 10.0 mi East 8.1 mph - N/A   Clear
2:36 AM 35.6 °F 29.9 °F 28.4 °F 75% 30.21 in 10.0 mi East 6.9 mph - N/A   Clear
2:56 AM 35.6 °F 30.7 °F 26.6 °F 70% 30.21 in 10.0 mi ENE 5.8 mph - N/A   Clear
3:16 AM 35.6 °F 31.7 °F 28.4 °F 75% 30.21 in 10.0 mi East 4.6 mph - N/A   Clear
3:39 AM 35.6 °F 31.7 °F 26.6 °F 70% 30.21 in 10.0 mi East 4.6 mph - N/A   Clear
3:56 AM 35.6 °F 32.8 °F 28.4 °F 75% 30.22 in 10.0 mi East 3.5 mph - N/A   Clear
4:16 AM 33.8 °F 30.8 °F 26.6 °F 75% 30.22 in 10.0 mi NE 3.5 mph - N/A   Clear
4:36 AM 33.8 °F 27.7 °F 26.6 °F 75% 30.21 in 10.0 mi East 6.9 mph - N/A   Clear
4:56 AM 33.8 °F 27.0 °F 26.6 °F 75% 30.21 in 10.0 mi East 8.1 mph - N/A   Clear
5:19 AM 33.8 °F 26.4 °F 26.6 °F 75% 30.21 in 10.0 mi East 9.2 mph - N/A   Clear
5:36 AM 33.8 °F 26.4 °F 28.4 °F 81% 30.21 in 10.0 mi ESE 9.2 mph - N/A   Clear
5:56 AM 33.8 °F 25.8 °F 28.4 °F 81% 30.19 in 10.0 mi NE 10.4 mph - N/A   Clear
6:16 AM 35.6 °F 28.0 °F 26.6 °F 70% 30.19 in 10.0 mi East 10.4 mph - N/A   Clear
6:36 AM 35.6 °F 29.2 °F 28.4 °F 75% 30.19 in 10.0 mi East 8.1 mph - N/A   Clear
6:56 AM 41.0 °F 36.4 °F 28.4 °F 61% 30.19 in 10.0 mi East 6.9 mph 10.4 mph N/A   Clear
7:16 AM 41.0 °F 37.1 °F 28.4 °F 61% 30.20 in 10.0 mi East 5.8 mph - N/A   Clear
7:36 AM 41.0 °F 37.1 °F 28.4 °F 61% 30.19 in 10.0 mi North 5.8 mph - N/A   Clear
8:16 AM 44.6 °F 38.8 °F 28.4 °F 53% 30.17 in 10.0 mi East 11.5 mph 17.3 mph N/A   Clear
8:36 AM 46.4 °F 41.9 °F 30.2 °F 53% 30.16 in 10.0 mi NE 9.2 mph 17.3 mph N/A   Clear
9:16 AM 51.8 °F - 30.2 °F 44% 30.18 in 10.0 mi ESE 10.4 mph - N/A   Clear
9:38 AM 50.0 °F - 28.4 °F 43% 30.18 in 10.0 mi SSE 23.0 mph 29.9 mph N/A   Clear
9:56 AM 51.8 °F - 26.6 °F 38% 30.16 in 10.0 mi SSE 29.9 mph 39.1 mph N/A   Scattered Clouds
10:16 AM 50.0 °F - 30.2 °F 47% 30.17 in 10.0 mi SE 8.1 mph - N/A   Scattered Clouds
10:36 AM 55.4 °F - 24.8 °F 31% 30.17 in 10.0 mi SE 17.3 mph 29.9 mph N/A   Mostly Cloudy
10:58 AM 57.2 °F - 24.8 °F 29% 30.15 in 10.0 mi SSE 24.2 mph 33.4 mph N/A   Scattered Clouds
11:16 AM 57.2 °F - 24.8 °F 29% 30.14 in 10.0 mi SSE 19.6 mph 34.5 mph N/A   Clear
11:38 AM 57.2 °F - 24.8 °F 29% 30.14 in 10.0 mi South 16.1 mph 28.8 mph N/A   Clear
11:56 AM 55.4 °F - 24.8 °F 31% 30.14 in 10.0 mi South 25.3 mph 29.9 mph N/A   Clear
12:16 PM 57.2 °F - 24.8 °F 29% 30.13 in 10.0 mi South 25.3 mph 33.4 mph N/A   Clear
12:36 PM 57.2 °F - 23.0 °F 27% 30.12 in 10.0 mi South 18.4 mph 26.5 mph N/A   Scattered Clouds
12:56 PM 55.4 °F - 23.0 °F 29% 30.13 in 10.0 mi South 20.7 mph 28.8 mph N/A   Scattered Clouds
1:16 PM 57.2 °F - 24.8 °F 29% 30.12 in 10.0 mi SSE 17.3 mph 23.0 mph N/A   Mostly Cloudy
1:36 PM 57.2 °F - 24.8 °F 29% 30.12 in 10.0 mi South 15.0 mph 21.9 mph N/A   Overcast
1:56 PM 57.2 °F - 24.8 °F 29% 30.11 in 10.0 mi SSE 17.3 mph 25.3 mph N/A   Overcast
2:16 PM 57.2 °F - 26.6 °F 31% 30.10 in 10.0 mi SSE 13.8 mph 26.5 mph N/A   Overcast
2:56 PM 57.2 °F - 26.6 °F 31% 30.10 in 10.0 mi South 17.3 mph 23.0 mph N/A   Overcast
3:16 PM 57.2 °F - 26.6 °F 31% 30.10 in 10.0 mi South 13.8 mph 21.9 mph N/A   Overcast
3:58 PM 57.2 °F - 26.6 °F 31% 30.08 in 10.0 mi SE 6.9 mph - N/A   Overcast
4:16 PM 57.2 °F - 26.6 °F 31% 30.08 in 10.0 mi SE 6.9 mph 20.7 mph N/A   Overcast
4:56 PM 57.2 °F - 28.4 °F 33% 30.06 in 10.0 mi SSE 9.2 mph 16.1 mph N/A   Overcast
5:16 PM 57.2 °F - 28.4 °F 33% 30.06 in 10.0 mi SSE 10.4 mph 19.6 mph N/A   Overcast
5:36 PM 55.4 °F - 28.4 °F 36% 30.06 in 10.0 mi ESE 8.1 mph - N/A   Mostly Cloudy
5:56 PM 55.4 °F - 28.4 °F 36% 30.06 in 10.0 mi SSE 9.2 mph 16.1 mph N/A   Overcast
6:18 PM 53.6 °F - 28.4 °F 38% 30.06 in 10.0 mi Calm Calm - N/A   Overcast
6:38 PM 55.4 °F - 28.4 °F 36% 30.08 in 10.0 mi WSW 5.8 mph - N/A   Overcast
6:56 PM 55.4 °F - 28.4 °F 36% 30.09 in 10.0 mi SSW 11.5 mph - N/A   Overcast
7:16 PM 55.4 °F - 30.2 °F 38% 30.09 in 10.0 mi SSW 10.4 mph - N/A   Overcast
7:56 PM 53.6 °F - 30.2 °F 41% 30.09 in 10.0 mi SE 5.8 mph - N/A   Overcast
8:18 PM 55.4 °F - 32.0 °F 41% 30.10 in 10.0 mi SW 8.1 mph 18.4 mph N/A   Overcast
8:36 PM 53.6 °F - 32.0 °F 44% 30.10 in 10.0 mi SW 5.8 mph - N/A   Overcast
8:56 PM 53.6 °F - 33.8 °F 47% 30.10 in 10.0 mi West 8.1 mph - N/A   Overcast
9:16 PM 53.6 °F - 35.6 °F 51% 30.10 in 10.0 mi SW 9.2 mph - N/A   Overcast
9:36 PM 55.4 °F - 35.6 °F 47% 30.10 in 10.0 mi SSW 9.2 mph - N/A   Overcast
9:56 PM 53.6 °F - 35.6 °F 51% 30.09 in 10.0 mi SSW 5.8 mph - N/A   Overcast
10:36 PM 53.6 °F - 39.2 °F 58% 30.08 in 10.0 mi SW 9.2 mph - N/A   Overcast
10:56 PM 53.6 °F - 39.2 °F 58% 30.08 in 10.0 mi WSW 6.9 mph - N/A   Overcast
11:18 PM 51.8 °F - 39.2 °F 62% 30.07 in 10.0 mi WSW 9.2 mph 16.1 mph N/A   Overcast
11:39 PM 51.8 °F - 39.2 °F 62% 30.06 in 10.0 mi Calm Calm - N/A   Overcast
11:56 PM 51.8 °F - 41.0 °F 67% 30.06 in 10.0 mi SW 4.6 mph - N/A   Mostly Cloudy